KMTNet SAAO LOG BOOK 2015-03-20 1  / 4 pages  
                         
Observer: Shin & Park KMTNet SAAO Observation CCD: 18K CCD    
Weather: Cloudy Temp: 18 / 17 / 14 C Hum: 28 / 30 / 36 % Moon:  1% Av. seeing:  D.Temp: -151.5 -133.6 -211.7 -114.5 22.9 22.5 25.7 29.4 3.34E-05
D.Temp: -152.7 -134.8 -212.2 -117.2 19.0 18.6 21.9 25.8 3.05E-05
   
                         
File Number Object PROJID Exp. Start Exp. Time Filter FWHM Comments    
13222 begin OBS 17:43 1.0 I   skip taking evening flat frames due to heavy cloud    
13223-13232 bias ALL 17:48 0.0 I   Wind : 42 km/h E    
13233 dark ALL 18:07 60.0 I   To check vaccuum filament off (OFF)    
13234 focus SN 18:14 30.0 B 1.0 (--) Focus = -5.93 -10 -350 (T=15.9)    
13235   SN 18:16 30.0 B 1.1 (--)      
13236 N2784-3 SN 18:19 60.0 B 1.0 (--)      
13237   SN 18:21 60.0 V 1.0 (--)      
13238   SN 18:24 60.0 I 1.0 (--)      
13239 N2784-4 SN 18:26 60.0 B 1.1 (--) Cloud covered    
13240   SN 18:29 60.0 V 1.0 (--)      
13241   SN 18:32 60.0 I 1.0 (--)      
13242 N2784-5 SN 18:34 60.0 B 1.0 (--) Cloud covered    
13243   SN 18:36 60.0 V 1.2 (--)      
13244   SN 18:39 60.0 I 1.0 (--)      
13245 N2784-6 SN 18:41 60.0 B 1.1 (--) Heavy Cloud covered    
13246   SN 18:44 60.0 V 1.0 (--)      
13247   SN 18:46 60.0 I 1.0 (--)      
13248 N2784-7 SN 18:49 60.0 B 1.1 (--) Cloud covered    
13249   SN 18:52 60.0 V 1.1 (--)      
13250   SN 18:54 60.0 I 1.0 (--)      
13251 N2784-3 SN 18:57 60.0 B 1.2 (--) Cloud covered    
13252   SN 19:00 60.0 V 1.2 (--)      
13253   SN 19:02 60.0 I 1.0 (--) Airplane passing          
13254 N2784-4 SN 19:05 60.0 B 1.1 (--)              
13255   SN 19:07 60.0 V 1.0 (--)      
13256   SN 19:10 60.0 I 1.0 (--)      
13257 N2784-5 SN 19:12 60.0 B 1.0 (--)      
13258   SN 19:15 60.0 V 1.1 (--)      
13259   SN 19:17 60.0 I 1.0 (--)      
13260 N2784-6 SN 19:20 60.0 B 1.4 (--) Cloud covered    
13261   SN 19:22 60.0 V 1.3 (--)      
13262   SN 19:25 60.0 I 1.1 (--)              
13263 N2784-7 SN 19:27 60.0 B 1.2 (--) Cloud covered    
13264   SN 19:30 60.0 V 1.2 (--)              
13265 SN 19:32 60.0 I 1.1 (--)      
13266 N2784-3 SN 19:35 60.0 B 1.3 (1.38)      
13267   SN 19:37 60.0 V 1.3 (--)      
13268   SN 19:40 60.0 I 1.1 (--)      
13269 N2784-4 SN 19:43 60.0 B 1.4 ('1.57)      
13270   SN 19:45 60.0 V 1.2 (1.64)      
13271   SN 19:48 60.0 I 1.0 (1.45)      
13272 N2784-5 SN 19:50 60.0 B 1.2 (1.27)      
13273   SN 19:53 60.0 V 1.1 (--)      
13274   SN 19:55 60.0 I 1.0 (1.31)      
13275 N2784-6 SN 19:58 60.0 B 1.1 (1.07)      
13276   SN 20:00 60.0 V 1.0 (1.16)      
13277   SN 20:04 60.0 I 1.0 (--)      
13278 N2784-7 SN 20:06 60.0 B 1.2 (--)      
13279   SN 20:09 60.0 V 1.1 (1.27)      
13280   SN 20:11 60.0 I 1.0 (1.27)      
13281 N2784-3 SN 20:14 60.0 B 1.4 (--) Cloud covered    
13282   SN 20:16 60.0 V 1.1 (--)      
13283   SN 20:18 60.0 I 1.1 (--)      
13284 N2784-4 SN 20:21 60.0 B 1.3 (--) Cloud covered    
13285   SN 20:24 60.0 V 1.1 (--)      
13286 SN 20:26 60.0 I 0.9 (--)      
13287 N2784-5 SN 20:29 60.0 B 1.3 (--) Cloud covered    
13288   SN 20:32 60.0 V 1.3 (--)      
13289   SN 20:34 60.0 I 1.2 (--)      
13290 N2784-6 SN 20:37 60.0 B 1.2 (--)      
13291   SN 20:40 60.0 V 1.1 (--)      
13292   SN 20:42 60.0 I 1.2 (--)      
13293 N2784-7 SN 20:44 60.0 B 1.2 (--)      
13294   SN 20:47 60.0 V 1.1 (--)      
 
 
KMTNet SAAO LOG BOOK 2  / 4 pages  
                       
Observer: Shin & Park KMTNet SAAO Observation CCD: 18K CCD    
Weather: Cloudy Temp: 18 / 17 / 14 C Hum: 28 / 30 / 36 % Moon:  1% Av. seeing:  D.Temp: -151.5 -133.6 -211.7 -114.5 22.9 22.5 25.7 29.4 3.34E-05
D.Temp: -152.7 -134.8 -212.2 -117.2 19.0 18.6 21.9 25.8 3.05E-05
   
                         
13295   SN 20:50 60.0 I 1.1 (--)  
13296 N2784-3 SN 20:52 60.0 B 1.3 (--)  
13297   SN 20:54 60.0 V 1.2 (--)  
13298   SN 20:57 60.0 I 1.1 (--)  
13299 N2784-4 SN 21:00 60.0 B 1.3 (--)  
13300   SN 21:02 60.0 V 1.1 (--)  
13301   SN 21:05 60.0 I 1.1 (--)  
13302 N2784-5 SN 21:08 60.0 B 1.5 (--)  
13303   SN 21:10 60.0 V 1.5 (--)  
13304   SN 21:13 60.0 I 1.2 (--)  
13305 N2784-6 SN 21:16 60.0 B 1.3 (--)  
13306   SN 21:18 60.0 V 1.2 (--)  
13307   SN 21:21 60.0 I 1.1 (--)  
13308 N2784-7 SN 21:24 60.0 B 1.2 (--)  
13309   SN 21:25 60.0 V 1.1 (--)  
13310   SN 21:29 60.0 I 1.0 (--) Heavy Cloud covered
13311 N2784-3 SN 21:31 60.0 B 1.6 (--)  
13312   SN 21:34 60.0 V 1.4 (--)  
13313   SN 21:36 60.0 I 1.1 (--)  
13314 N2784-4 SN 21:39 60.0 B 1.4 (--)  
13315   SN 21:41 60.0 V 1.2 (1.48)  
13316   SN 21:44 60.0 I 1.0 (1.39)          
13317 N2784-5 SN 21:46 60.0 B 1.3 (1.48)          
13318   SN 21:49 60.0 V 1.2 (1.30)          
13319   SN 21:51 60.0 I 1.1 (1.20)          
13320 N2784-6 SN 21:55 60.0 B 1.2 (1.29) Wind : 27 km/h E
13321   SN 21:57 60.0 V 1.1 (1.18)          
13322   SN 22:00 60.0 I 1.0 (1.18)  
13323 N2784-7 SN 22:03 60.0 B 1.3 (1.14) Focus = -5.94 (T=16.1) / Heavy Cloud covered
13324   SN 22:05 60.0 V 1.4 (1.05) Heavy Cloud covered
13325   SN 22:07 60.0 I 1.1 (--)          
13326 N2784-3 SN 22:10 60.0 B 1.3 (1.49) Heavy Cloud covered
13327   SN 22:12 60.0 V 1.2 (1.28)          
13328   SN 22:15 60.0 I -- (1.22) Observation stop due to heavy cloud (No signal) / waiting for clear sky
13329 N2784-4 SN 22:29 60.0 B -- (--) Heavy Cloud covered
13330   SN 22:21 60.0 V -- (--)  
13331   SN 22:34 60.0 I -- (--)  
13332 N2784-4 SN 22:39 60.0 B -- (--) Observation stop due to heavy cloud, Dome close  / waiting for clear sky
               
13398-13402 dark ALL 03:22 60.0 I   Wind: 31 km/h E
13403-13412 bias ALL 03:36 0.0 I    
13413 end OBS 03:50 1.0 I    
               
               
               
               
               
               
               
               
               
               
               
               
               
               
               
               
   
         
               
                         
               
               
               
               
               
             
               
               
               
               
               
               
               
               
               
               
               
               
               
               
               
               
               
               
               
               
               
               
               
               
               
               
               
               
               
               
               
               
               
               
               
               
               
               
                       
               
               
               
               
               
               
               
               
               
               
               
               
               
               
               
               
         
               
                       
               
               
               
               
               
               
               
               
               
               
               
               
               
               
               
               
               
               
               
               
               
               
               
               
               
               
               
               
                       
                       
                       
               
               
               
               
               
               
               
               
               
               
               
               
               
               
               
               
               
               
               
               
               
               
               
               
               
               
               
               
               
               
     
           
                       
               
               
               
               
               
               
               
               
               
               
               
               
               
               
               
               
               
               
               
               
               
               
               
               
               
               
               
               
                       
                       
                       
               
               
               
               
               
               
               
               
               
               
               
               
               
               
               
               
               
               
               
               
               
               
               
               
               
               
               
               
               
               
: